Weather History for Waupaca, WI

Change the Weather History Date:

Wednesday, August 13, 2014

  Actual Average Record
Temperature  
Mean Temperature 69 °F -  
Max Temperature 81 °F 80 °F 93 °F (1988)
Min Temperature 57 °F 57 °F 45 °F (1966)
Cooling Degree Days 4    
Growing Degree Days 19 (Base 50)    
Moisture  
Dew Point 53 °F    
Average Humidity 59    
Maximum Humidity 87    
Minimum Humidity 31    
Precipitation  
Precipitation 0.00 in - - ()
Sea Level Pressure  
Sea Level Pressure 30.00 in    
Wind  
Wind Speed 4 mph (NW)    
Max Wind Speed 12 mph    
Max Gust Speed -    
Visibility 10 miles    
Events      
Averages and records for this station are not official NWS values.
T = Trace of Precipitation, MM = Missing Value Source: NWS Daily Summary

Daily Weather History Graph

Daily Weather History Graph

Search for Another Location

Airport:

Trip Planner

Search our weather history database for the weather conditions in past years. The results will help you decide how hot, cold, wet, or windy it might be!

Date:

Astronomy

Aug. 13, 2014 Rise Set
Actual Time 5:56 AM CDT 8:04 PM CDT
Civil Twilight 5:25 AM CDT 8:35 PM CDT
Nautical Twilight 4:46 AM CDT 9:14 PM CDT
Astronomical Twilight 4:02 AM CDT 9:57 PM CDT
Moon 9:38 PM CDT (8/13) 9:34 AM CDT (8/13)
Length of Visible Light 15h 10m
Length of Day
14h 07m
Waning Gibbous, 87% of the Moon is Illuminated
Aug 13
Waning Gibbous
Aug 17
Last Quarter
Aug 25
New
Sep 2
First Quarter
Sep 8
Full

Hourly Weather History & Observations

Time (CDT) Temp. Dew Point Humidity Pressure Visibility Wind Dir Wind Speed Gust Speed Precip Events Conditions
12:15 AM 57.6 °F 51.3 °F 79% 29.97 in 10.0 mi Calm Calm - N/A   Clear
12:35 AM 58.6 °F 50.5 °F 74% 29.97 in 10.0 mi Calm Calm - N/A   Clear
12:55 AM 57.7 °F 50.9 °F 78% 29.96 in 10.0 mi Calm Calm - N/A   Clear
1:15 AM 59.4 °F 50.9 °F 74% 29.96 in 10.0 mi West 3.5 mph - N/A   Clear
1:35 AM 57.9 °F 52.3 °F 82% 29.96 in 10.0 mi West 4.6 mph - N/A   Mostly Cloudy
1:55 AM 61.0 °F 52.0 °F 72% 29.96 in 10.0 mi West 3.5 mph - N/A   Overcast
2:15 AM 61.7 °F 52.2 °F 71% 29.95 in 10.0 mi West 4.6 mph - N/A   Mostly Cloudy
2:35 AM 62.6 °F 52.5 °F 70% 29.96 in 10.0 mi West 5.8 mph - N/A   Mostly Cloudy
2:55 AM 63.3 °F 53.4 °F 70% 29.96 in 10.0 mi WNW 3.5 mph - N/A   Overcast
3:15 AM 64.0 °F 54.0 °F 70% 29.96 in 10.0 mi West 5.8 mph - N/A   Overcast
3:35 AM 64.0 °F 54.5 °F 71% 29.96 in 10.0 mi West 5.8 mph - N/A   Mostly Cloudy
3:55 AM 63.0 °F 54.7 °F 74% 29.95 in 10.0 mi West 5.8 mph - N/A   Clear
4:15 AM 62.2 °F 55.0 °F 77% 29.95 in 10.0 mi West 4.6 mph - N/A   Clear
4:35 AM 62.1 °F 55.6 °F 79% 29.96 in 10.0 mi Calm Calm - N/A   Clear
4:55 AM 61.2 °F 55.4 °F 81% 29.96 in 10.0 mi Calm Calm - N/A   Clear
5:15 AM 59.9 °F 55.8 °F 86% 29.97 in 10.0 mi West 4.6 mph - N/A   Clear
5:35 AM 60.3 °F 55.8 °F 85% 29.98 in 10.0 mi West 4.6 mph - N/A   Clear
5:55 AM 59.9 °F 55.9 °F 87% 29.98 in 10.0 mi West 4.6 mph - N/A   Clear
6:15 AM 59.9 °F 56.1 °F 87% 29.98 in 10.0 mi West 4.6 mph - N/A   Clear
6:35 AM 60.8 °F 56.5 °F 86% 29.99 in 10.0 mi WNW 3.5 mph - N/A   Clear
6:55 AM 62.2 °F 57.4 °F 84% 30.00 in 10.0 mi WNW 3.5 mph - N/A   Clear
7:35 AM 64.2 °F 57.7 °F 79% 30.01 in 10.0 mi WNW 4.6 mph - N/A   Clear
7:55 AM 65.7 °F 58.3 °F 77% 30.01 in 10.0 mi NW 4.6 mph - N/A   Clear
8:15 AM 66.7 °F 59.0 °F 76% 30.01 in 10.0 mi NW 6.9 mph - N/A   Clear
8:35 AM 68.4 °F 59.2 °F 72% 30.01 in 10.0 mi North 5.8 mph - N/A   Clear
8:55 AM 69.3 °F 58.6 °F 69% 30.01 in 10.0 mi North 4.6 mph - N/A   Clear
9:35 AM 71.1 °F 58.8 °F 65% 30.02 in 10.0 mi NW 4.6 mph - N/A   Clear
10:15 AM 73.9 °F 56.8 °F 55% 30.02 in 10.0 mi NNE 4.6 mph - N/A   Clear
10:35 AM 74.5 °F 55.9 °F 52% 30.02 in 10.0 mi Calm Calm - N/A   Clear
10:55 AM 74.5 °F 56.1 °F 53% 30.03 in 10.0 mi NE 4.6 mph - N/A   Clear
11:15 AM 76.5 °F 56.5 °F 50% 30.02 in 10.0 mi West 3.5 mph - N/A   Scattered Clouds
11:35 AM 75.6 °F 56.8 °F 52% 30.02 in 10.0 mi NNE 3.5 mph - N/A   Scattered Clouds
11:55 AM 77.2 °F 56.5 °F 49% 30.02 in 10.0 mi Calm Calm - N/A   Scattered Clouds
12:15 PM 77.5 °F 55.9 °F 47% 30.02 in 10.0 mi NNE 6.9 mph - N/A   Scattered Clouds
12:35 PM 77.5 °F 55.9 °F 47% 30.02 in 10.0 mi NNE 6.9 mph - N/A   Mostly Cloudy
12:55 PM 79.3 °F 55.6 °F 44% 30.01 in 10.0 mi NNE 5.8 mph - N/A   Mostly Cloudy
1:15 PM 79.2 °F 54.3 °F 42% 30.01 in 10.0 mi NNE 4.6 mph - N/A   Mostly Cloudy
1:35 PM 79.7 °F 53.8 °F 41% 30.01 in 10.0 mi NE 3.5 mph - N/A   Mostly Cloudy
1:55 PM 77.9 °F 53.2 °F 42% 30.01 in 10.0 mi NNW 4.6 mph - N/A   Mostly Cloudy
2:15 PM 79.7 °F 52.7 °F 39% 30.01 in 10.0 mi NW 6.9 mph - N/A   Mostly Cloudy
2:35 PM 78.8 °F 50.0 °F 36% 30.01 in 10.0 mi North 4.6 mph - N/A   Scattered Clouds
2:55 PM 79.9 °F 50.7 °F 36% 30.01 in 10.0 mi NW 8.1 mph - N/A   Clear
3:15 PM 79.5 °F 50.5 °F 36% 30.01 in 10.0 mi North 9.2 mph - N/A   Scattered Clouds
3:35 PM 81.5 °F 51.6 °F 35% 30.01 in 10.0 mi NNW 11.5 mph - N/A   Mostly Cloudy
3:55 PM 80.4 °F 49.8 °F 34% 30.01 in 10.0 mi NNW 9.2 mph - N/A   Scattered Clouds
4:15 PM 80.8 °F 49.1 °F 33% 30.01 in 10.0 mi NNW 9.2 mph - N/A   Clear
4:35 PM 80.1 °F 49.1 °F 34% 30.01 in 10.0 mi North 8.1 mph - N/A   Scattered Clouds
4:55 PM 80.1 °F 47.7 °F 32% 30.01 in 10.0 mi NW 8.1 mph - N/A   Scattered Clouds
5:15 PM 79.9 °F 47.8 °F 32% 30.02 in 10.0 mi NNW 11.5 mph - N/A   Scattered Clouds
5:35 PM 79.2 °F 46.4 °F 31% 30.02 in 10.0 mi NNW 6.9 mph - N/A   Clear
5:55 PM 78.6 °F 46.2 °F 32% 30.02 in 10.0 mi NNW 10.4 mph - N/A   Clear
6:15 PM 78.1 °F 45.7 °F 32% 30.02 in 10.0 mi North 9.2 mph - N/A   Clear
6:35 PM 76.6 °F 45.9 °F 34% 30.03 in 10.0 mi NNW 8.1 mph - N/A   Clear
6:55 PM 76.3 °F 46.6 °F 35% 30.03 in 10.0 mi NNW 5.8 mph - N/A   Clear
7:15 PM 75.2 °F 48.2 °F 38% 30.03 in 10.0 mi NNW 4.6 mph - N/A   Clear
7:55 PM 70.9 °F 50.0 °F 48% 30.03 in 10.0 mi NNW 3.5 mph - N/A   Clear
11:15 PM 61.5 °F 51.8 °F 70% 30.11 in 10.0 mi NNE 3.5 mph - N/A   Clear
11:35 PM 60.3 °F 52.7 °F 76% 30.12 in 10.0 mi NNE 3.5 mph - N/A   Clear
11:55 PM 59.5 °F 52.9 °F 79% 30.12 in 10.0 mi Calm Calm - N/A   Clear